�N����,����,�~����,�C��,���x,�C��,����,���ϕ���,�ő�u�ԕ���,�ő厞����,���˗�,�I�_���x,�n�����x,�ő啗���N��,DTYPE
"18/04/03","00:10",0.0,13.1,87.6,1012.6,310.7,1.6,2.1,320.8,0.00,11.1,13.7,"00:04:08",1
"18/04/03","00:20",0.0,13.1,86.7,1012.8,291.3,1.3,2.5,300.8,0.00,11.0,14.0,"00:19:14",1
"18/04/03","00:30",0.0,13.3,87.3,1013.0,282.5,1.2,2.1,327.3,0.00,11.3,13.7,"00:22:16",1
"18/04/03","00:40",0.0,13.2,86.9,1012.8,296.6,1.2,2.0,317.0,0.00,11.1,13.7,"00:38:24",1
"18/04/03","00:50",0.0,13.1,87.2,1012.8,315.5,1.1,2.0,311.0,0.00,11.1,13.7,"00:45:12",1
"18/04/03","01:00",0.0,13.1,87.2,1012.8,298.8,1.5,2.7,315.3,0.00,11.1,13.5,"00:59:18",1
"18/04/03","01:10",0.0,13.0,86.4,1012.8,349.3,1.3,2.7,340.5,0.00,10.8,13.5,"01:01:36",1
"18/04/03","01:20",0.0,12.3,88.0,1012.8,280.7,0.5,1.0,260.7,0.00,10.4,13.6,"01:14:40",1
"18/04/03","01:30",0.0,12.2,89.3,1012.6,294.9,0.8,1.9,319.7,0.00,10.5,13.3,"01:27:44",1
"18/04/03","01:40",0.0,12.2,90.0,1012.6,316.7,1.5,1.8,322.7,0.00,10.6,13.2,"01:32:28",1
"18/04/03","01:50",0.0,12.0,90.1,1012.8,315.1,1.6,2.0,318.7,0.00,10.5,13.2,"01:49:46",1
"18/04/03","02:00",0.0,11.7,90.4,1012.6,325.2,1.7,2.1,324.5,0.00,10.2,13.2,"01:50:48",1
"18/04/03","02:10",0.0,11.7,91.6,1012.6,290.0,1.3,2.1,327.4,0.00,10.4,13.3,"02:00:08",1
"18/04/03","02:20",0.0,11.8,91.7,1012.6,282.5,1.2,1.4,298.2,0.00,10.5,13.1,"02:11:48",1
"18/04/03","02:30",0.0,12.1,91.7,1012.3,298.8,1.6,2.6,302.1,0.00,10.8,13.2,"02:27:14",1
"18/04/03","02:40",0.0,11.8,90.4,1012.6,310.3,1.7,2.4,330.2,0.00,10.3,13.0,"02:38:32",1
"18/04/03","02:50",0.0,11.5,91.4,1012.3,323.7,1.5,2.1,320.9,0.00,10.2,13.0,"02:49:20",1
"18/04/03","03:00",0.0,11.3,91.8,1012.3,318.0,1.6,2.1,323.4,0.00,10.1,12.8,"02:51:04",1
"18/04/03","03:10",0.0,11.0,93.2,1012.3,322.9,1.8,2.7,324.2,0.00,10.0,12.7,"03:02:00",1
"18/04/03","03:20",0.0,11.2,93.1,1012.6,329.5,1.5,1.9,323.4,0.00,10.2,12.8,"03:11:14",1
"18/04/03","03:30",0.0,11.0,92.6,1012.6,313.7,1.6,2.1,315.9,0.00,9.9,12.6,"03:23:44",1
"18/04/03","03:40",0.0,10.8,93.9,1012.6,296.9,0.8,1.4,311.9,0.00,9.9,12.7,"03:38:00",1
"18/04/03","03:50",0.0,10.9,94.0,1012.3,326.0,1.7,2.2,327.0,0.00,10.0,12.7,"03:47:12",1
"18/04/03","04:00",0.0,10.7,94.4,1012.6,312.4,1.7,2.4,320.9,0.00,9.9,12.5,"03:52:56",1
"18/04/03","04:10",0.0,10.6,95.1,1012.8,313.6,1.5,1.9,323.8,0.00,9.9,12.4,"04:02:24",1
"18/04/03","04:20",0.0,10.5,94.8,1012.8,299.5,0.8,1.9,319.4,0.00,9.7,12.4,"04:19:52",1
"18/04/03","04:30",0.0,10.3,94.9,1012.6,313.1,1.6,2.0,321.7,0.00,9.6,12.5,"04:20:40",1
"18/04/03","04:40",0.0,10.2,94.9,1012.8,320.5,2.1,2.4,315.7,0.00,9.5,12.5,"04:34:40",1
"18/04/03","04:50",0.0,10.3,95.7,1013.0,313.1,1.8,2.4,322.4,0.00,9.7,12.4,"04:45:52",1
"18/04/03","05:00",0.0,10.1,95.2,1013.0,302.8,1.1,1.9,320.6,0.00,9.4,12.3,"04:59:20",1
"18/04/03","05:10",0.0,10.1,96.1,1013.0,324.9,1.6,2.0,323.0,0.00,9.5,12.1,"05:00:48",1
"18/04/03","05:20",0.0,9.8,95.7,1013.3,314.7,1.5,2.4,325.4,0.00,9.2,12.1,"05:14:08",1
"18/04/03","05:30",0.0,9.9,96.4,1012.8,320.9,1.7,2.4,322.3,0.00,9.4,12.2,"05:22:00",1
"18/04/03","05:40",0.0,9.6,95.8,1013.3,317.0,1.7,2.4,320.9,0.00,9.0,12.0,"05:37:28",1
"18/04/03","05:50",0.0,9.7,96.8,1013.5,307.0,1.3,2.0,325.4,0.00,9.3,11.9,"05:40:08",1
"18/04/03","06:00",0.0,9.8,97.3,1013.3,298.6,1.3,1.8,322.5,0.00,9.4,11.9,"05:57:28",1
"18/04/03","06:10",0.0,10.2,97.4,1013.8,298.3,1.3,2.0,314.3,0.00,9.8,12.0,"06:04:16",1
"18/04/03","06:20",0.0,10.0,97.1,1014.0,313.3,1.3,2.0,323.6,0.00,9.6,11.8,"06:15:20",1
"18/04/03","06:30",0.0,10.0,97.2,1014.2,296.0,1.1,1.6,315.6,0.00,9.6,12.0,"06:29:44",1
"18/04/03","06:40",0.0,10.3,96.9,1014.2,314.4,1.6,2.5,325.6,0.01,9.9,12.0,"06:30:56",1
"18/04/03","06:50",0.0,10.6,97.0,1014.2,317.0,2.0,2.6,321.7,0.02,10.2,11.8,"06:47:04",1
"18/04/03","07:00",0.0,11.2,97.2,1014.5,298.1,1.1,1.8,316.0,0.03,10.8,12.1,"06:50:08",1
"18/04/03","07:10",0.0,11.9,96.7,1014.2,286.6,0.3,1.0,302.8,0.04,11.4,12.0,"07:00:24",1
"18/04/03","07:20",0.0,12.7,95.6,1014.5,309.8,0.3,0.8,307.3,0.06,12.1,12.2,"07:10:08",1
"18/04/03","07:30",0.0,13.3,93.2,1014.5,304.8,0.2,0.6,310.6,0.07,12.3,12.2,"07:21:52",1
"18/04/03","07:40",0.0,14.0,89.0,1014.5,293.8,0.3,0.6,291.6,0.09,12.3,12.4,"07:30:16",1
"18/04/03","07:50",0.0,14.8,85.9,1014.5,324.5,0.6,1.0,320.7,0.12,12.5,12.5,"07:42:48",1
"18/04/03","08:00",0.0,14.8,85.3,1014.7,329.3,0.6,1.2,329.4,0.10,12.4,12.6,"07:57:52",1
"18/04/03","08:10",0.0,14.7,84.5,1014.9,212.8,0.2,0.8,325.6,0.09,12.2,12.7,"08:01:04",1
"18/04/03","08:20",0.0,15.5,83.0,1015.2,285.2,0.2,0.6,256.3,0.12,12.7,12.7,"08:13:20",1
"18/04/03","08:30",0.0,16.1,81.8,1015.2,282.3,0.2,0.5,269.0,0.16,13.0,13.1,"08:23:12",1
"18/04/03","08:40",0.0,16.5,78.8,1015.2,2.6,0.6,1.2,340.3,0.21,12.9,13.2,"08:31:20",1
"18/04/03","08:50",0.0,16.9,76.4,1014.9,30.6,0.2,1.1,81.6,0.23,12.8,13.3,"08:49:12",1
"18/04/03","09:00",0.0,17.5,76.0,1015.2,75.1,0.6,1.4,71.4,0.28,13.3,13.6,"08:52:32",1
"18/04/03","09:10",0.0,17.7,74.0,1014.7,196.4,1.0,1.9,170.3,0.31,13.1,13.9,"09:08:32",1
"18/04/03","09:20",0.0,18.1,72.7,1014.5,147.9,0.7,1.9,120.7,0.34,13.2,14.2,"09:10:08",1
"18/04/03","09:30",0.0,18.9,71.2,1014.2,167.3,0.8,1.9,118.0,0.36,13.6,14.4,"09:22:00",1
"18/04/03","09:40",0.0,18.8,70.2,1014.2,179.3,1.2,2.2,130.2,0.38,13.3,14.7,"09:31:52",1
"18/04/03","09:50",0.0,19.3,67.3,1013.8,189.1,1.3,2.8,108.0,0.40,13.1,14.8,"09:48:40",1
"18/04/03","10:00",0.0,20.0,68.2,1014.0,164.4,1.5,3.2,226.6,0.43,14.0,15.2,"09:54:56",1
"18/04/03","10:10",0.0,19.9,65.6,1013.3,211.8,1.6,2.9,188.5,0.45,13.3,15.5,"10:01:12",1
"18/04/03","10:20",0.0,20.7,65.6,1013.5,170.7,1.6,3.1,130.0,0.47,14.1,15.5,"10:17:36",1
"18/04/03","10:30",0.0,21.0,64.6,1012.8,188.6,1.5,3.5,171.8,0.47,14.1,16.0,"10:29:52",1
"18/04/03","10:40",0.0,21.0,63.1,1012.8,197.4,1.8,2.9,180.3,0.47,13.8,16.3,"10:30:08",1
"18/04/03","10:50",0.0,21.5,61.0,1012.8,202.3,1.8,3.6,190.6,0.49,13.7,16.6,"10:49:04",1
"18/04/03","11:00",0.0,21.7,62.7,1012.1,161.5,2.0,4.1,120.9,0.48,14.3,16.8,"10:56:32",1
"18/04/03","11:10",0.0,22.2,61.0,1012.6,165.1,2.2,3.3,227.9,0.56,14.4,17.1,"11:00:16",1
"18/04/03","11:20",0.0,22.5,60.6,1011.6,134.3,2.2,4.3,134.2,0.57,14.5,17.3,"11:11:04",1
"18/04/03","11:30",0.0,22.1,59.2,1011.6,158.2,2.2,3.5,166.3,0.30,13.8,17.5,"11:24:32",1
"18/04/03","11:40",0.0,22.8,56.3,1011.4,190.8,2.3,3.7,147.7,0.54,13.7,17.8,"11:37:20",1
"18/04/03","11:50",0.0,23.1,55.8,1011.2,167.3,2.1,3.5,173.5,0.45,13.8,17.9,"11:40:24",1
"18/04/03","12:00",0.0,22.9,55.0,1011.2,188.0,1.8,4.2,191.7,0.33,13.4,18.2,"11:52:08",1
"18/04/03","12:10",0.0,22.7,55.0,1011.2,129.8,1.6,4.3,115.4,0.22,13.2,18.2,"12:06:16",1
"18/04/03","12:20",0.0,23.1,54.6,1010.9,109.5,1.8,3.5,138.6,0.39,13.5,18.3,"12:14:00",1
"18/04/03","12:30",0.0,24.3,50.1,1010.7,59.0,0.8,2.5,111.0,0.59,13.3,18.7,"12:20:32",1
"18/04/03","12:40",0.0,24.6,49.9,1010.2,126.9,1.5,3.7,103.6,0.61,13.5,18.9,"12:36:08",1
"18/04/03","12:50",0.0,24.9,48.4,1010.7,241.9,1.0,3.4,227.7,0.61,13.3,19.2,"12:40:02",1
"18/04/03","13:00",0.0,25.5,44.0,1010.7,249.4,0.8,2.4,192.1,0.58,12.4,19.4,"12:51:28",1
"18/04/03","13:10",0.0,25.9,42.9,1010.4,321.5,1.8,5.0,346.4,0.54,12.4,19.6,"13:06:48",1
"18/04/03","13:20",0.0,25.2,41.7,1010.4,299.9,2.1,5.8,357.5,0.43,11.3,19.7,"13:14:40",1
"18/04/03","13:30",0.0,25.4,40.4,1009.7,241.8,2.2,5.8,221.6,0.57,11.0,19.9,"13:25:28",1
"18/04/03","13:40",0.0,25.5,39.7,1010.0,212.8,2.7,4.9,223.2,0.57,10.8,20.2,"13:30:16",1
"18/04/03","13:50",0.0,25.4,40.2,1009.5,208.6,2.6,6.0,214.8,0.53,10.9,20.2,"13:46:24",1
"18/04/03","14:00",0.0,26.0,39.6,1010.0,196.9,2.1,4.3,133.5,0.54,11.3,20.4,"13:56:08",1
"18/04/03","14:10",0.0,26.1,40.5,1009.5,246.1,1.8,4.1,207.5,0.50,11.7,20.5,"14:01:12",1
"18/04/03","14:20",0.0,25.4,40.1,1009.0,205.4,3.0,5.5,205.7,0.27,10.9,20.7,"14:13:20",1
"18/04/03","14:30",0.0,25.2,38.8,1008.8,208.0,3.0,5.7,193.5,0.43,10.2,20.7,"14:21:44",1
"18/04/03","14:40",0.0,26.0,39.0,1009.5,211.4,1.0,2.6,227.4,0.39,11.0,20.7,"14:37:28",1
"18/04/03","14:50",0.0,25.6,42.2,1008.6,242.7,2.0,4.0,205.9,0.29,11.9,20.5,"14:40:02",1
"18/04/03","15:00",0.0,25.6,41.9,1008.8,244.1,1.8,3.4,220.3,0.34,11.8,20.4,"14:56:56",1
"18/04/03","15:10",0.0,25.6,39.6,1008.8,235.4,2.6,4.5,216.3,0.40,10.9,20.5,"15:07:52",1
"18/04/03","15:20",0.0,25.0,39.8,1008.3,234.3,2.3,4.9,228.2,0.25,10.4,20.5,"15:15:52",1
"18/04/03","15:30",0.0,25.4,41.8,1008.1,236.6,2.2,6.5,229.6,0.34,11.5,20.3,"15:25:44",1
"18/04/03","15:40",0.0,25.5,40.6,1008.6,213.4,2.6,4.8,230.0,0.30,11.2,20.3,"15:34:56",1
"18/04/03","15:50",0.0,25.4,43.9,1008.6,233.4,2.5,5.2,227.1,0.28,12.3,20.4,"15:42:56",1
"18/04/03","16:00",0.0,25.1,44.1,1008.6,195.9,3.4,5.4,215.6,0.25,12.1,20.4,"15:54:56",1
"18/04/03","16:10",0.0,25.3,44.2,1008.8,197.5,3.0,5.4,205.6,0.23,12.3,20.3,"16:02:08",1
"18/04/03","16:20",0.0,25.3,43.3,1008.8,214.6,2.5,4.5,193.7,0.20,12.0,20.2,"16:18:16",1
"18/04/03","16:30",0.0,25.2,41.8,1009.0,204.4,2.8,5.7,206.9,0.17,11.4,20.1,"16:22:48",1
"18/04/03","16:40",0.0,24.9,41.0,1008.8,191.9,3.2,5.0,187.2,0.15,10.8,20.0,"16:32:32",1
"18/04/03","16:50",0.0,24.8,39.4,1009.0,188.4,2.8,4.8,193.7,0.12,10.1,19.8,"16:48:40",1
"18/04/03","17:00",0.0,24.5,39.6,1009.0,192.5,3.9,7.7,189.5,0.09,9.9,19.6,"16:52:08",1
"18/04/03","17:10",0.0,24.4,41.0,1009.3,197.5,3.4,5.4,225.4,0.08,10.3,19.4,"17:04:08",1
"18/04/03","17:20",0.0,24.2,40.4,1009.0,188.7,3.0,4.9,185.8,0.06,9.9,19.3,"17:17:52",1
"18/04/03","17:30",0.0,24.0,42.2,1009.0,185.1,2.6,4.7,214.4,0.04,10.4,19.1,"17:26:32",1
"18/04/03","17:40",0.0,23.7,42.9,1009.5,207.0,2.1,3.5,140.4,0.03,10.4,19.0,"17:39:12",1
"18/04/03","17:50",0.0,23.4,44.4,1009.5,226.1,1.8,3.5,231.0,0.01,10.6,18.8,"17:45:44",1
"18/04/03","18:00",0.0,23.2,44.8,1009.5,255.5,1.5,2.8,251.5,0.00,10.6,18.9,"17:51:36",1
"18/04/03","18:10",0.0,22.9,45.4,1009.7,266.9,1.2,2.7,238.4,0.00,10.5,18.6,"18:00:16",1
"18/04/03","18:20",0.0,22.6,45.8,1010.0,287.0,1.1,2.7,340.2,0.00,10.4,18.5,"18:18:08",1
"18/04/03","18:30",0.0,22.4,46.5,1010.0,297.2,1.6,3.2,344.1,0.00,10.4,18.4,"18:25:28",1
"18/04/03","18:40",0.0,21.8,48.7,1010.2,330.6,1.5,2.6,342.2,0.00,10.6,18.0,"18:31:12",1
"18/04/03","18:50",0.0,21.6,49.3,1010.4,322.5,2.1,3.9,338.0,0.00,10.6,18.1,"18:47:20",1
"18/04/03","19:00",0.0,21.2,51.1,1010.9,334.1,2.3,3.7,332.1,0.00,10.7,18.1,"18:59:20",1
"18/04/03","19:10",0.0,20.7,53.0,1011.2,318.9,1.6,2.5,332.7,0.00,10.8,17.7,"19:09:44",1
"18/04/03","19:20",0.0,20.3,54.5,1010.9,325.5,1.8,3.6,345.3,0.00,10.9,17.7,"19:17:28",1
"18/04/03","19:30",0.0,19.8,56.6,1011.2,327.9,2.2,3.3,341.6,0.00,11.0,17.6,"19:28:00",1
"18/04/03","19:40",0.0,19.7,57.1,1010.9,332.0,2.5,4.1,334.0,0.00,11.0,17.2,"19:34:24",1
"18/04/03","19:50",0.0,20.0,56.0,1011.2,333.4,3.0,4.7,354.3,0.00,11.0,17.1,"19:47:20",1
"18/04/03","20:00",0.0,19.5,58.3,1011.6,337.2,2.1,4.3,345.3,0.00,11.1,17.2,"19:50:48",1
"18/04/03","20:10",0.0,18.9,62.9,1012.1,333.1,1.8,3.1,330.8,0.00,11.7,17.2,"20:09:20",1
"18/04/03","20:20",0.0,18.6,65.1,1011.9,340.4,2.0,3.6,340.1,0.00,12.0,16.9,"20:19:52",1
"18/04/03","20:30",0.0,18.5,66.0,1011.9,339.0,1.7,3.1,341.3,0.00,12.1,16.8,"20:25:52",1
"18/04/03","20:40",0.0,18.1,67.3,1012.3,336.1,1.6,2.9,348.9,0.00,12.0,16.8,"20:32:24",1
"18/04/03","20:50",0.0,17.8,68.3,1012.3,319.6,1.3,2.9,344.9,0.00,11.9,16.7,"20:41:36",1
"18/04/03","21:00",0.0,17.5,69.7,1012.8,312.9,1.6,2.5,331.8,0.00,11.9,16.7,"20:58:40",1
"18/04/03","21:10",0.0,17.8,71.4,1012.8,331.2,2.1,4.1,346.8,0.00,12.6,16.7,"21:09:44",1
"18/04/03","21:20",0.0,18.2,69.2,1013.0,340.1,2.3,4.1,348.7,0.00,12.5,16.2,"21:10:56",1
"18/04/03","21:30",0.0,18.3,68.7,1013.0,339.0,2.3,4.0,354.5,0.00,12.5,16.4,"21:28:40",1
"18/04/03","21:40",0.0,18.0,68.2,1013.0,323.3,1.6,3.6,348.8,0.00,12.1,16.3,"21:30:56",1
"18/04/03","21:50",0.0,17.2,69.4,1013.0,313.3,1.3,2.8,345.3,0.00,11.6,16.1,"21:42:56",1
"18/04/03","22:00",0.0,16.3,72.6,1013.0,303.7,1.1,1.4,327.1,0.00,11.4,16.0,"21:50:08",1
"18/04/03","22:10",0.0,15.9,76.2,1013.0,287.1,1.0,1.3,269.6,0.00,11.8,16.0,"22:05:44",1
"18/04/03","22:20",0.0,15.8,77.7,1013.0,301.1,1.0,1.6,315.5,0.00,12.0,15.7,"22:13:12",1
"18/04/03","22:30",0.0,15.8,78.0,1012.8,332.8,1.2,1.8,336.6,0.00,12.0,15.7,"22:25:12",1
"18/04/03","22:40",0.0,15.7,78.9,1012.8,330.7,1.6,2.5,335.0,0.00,12.1,15.7,"22:36:40",1
"18/04/03","22:50",0.0,15.9,78.8,1013.0,331.1,2.1,2.9,327.8,0.00,12.3,15.7,"22:41:12",1
"18/04/03","23:00",0.0,15.8,78.7,1013.0,299.4,1.3,2.6,328.1,0.00,12.2,15.4,"22:52:00",1
"18/04/03","23:10",0.0,15.5,79.1,1013.0,305.8,0.6,1.6,323.9,0.00,11.9,15.2,"23:06:00",1
"18/04/03","23:20",0.0,15.4,80.2,1013.0,327.0,1.7,3.6,336.6,0.00,12.0,15.4,"23:15:52",1
"18/04/03","23:30",0.0,15.6,80.8,1012.8,330.6,2.0,3.5,338.8,0.00,12.4,15.2,"23:28:32",1
"18/04/03","23:40",0.0,16.0,78.8,1012.8,316.5,2.2,3.4,334.9,0.00,12.4,15.2,"23:36:08",1
"18/04/03","23:50",0.0,16.1,78.1,1012.8,322.0,2.1,3.6,334.3,0.00,12.3,15.2,"23:47:44",1
"18/04/03","24:00",0.0,15.8,78.2,1012.8,306.4,1.5,2.2,331.3,0.00,12.1,15.1,"23:56:00",1
